sat.trackr.live / text

‹ back to catalog

KAZSTSAT

NORAD 43783 · 2018-099AB

PAYLOAD ACTIVE UNKNOWN

§ Identity

Operator
Country
KAZ
Launch date
2018-12-03
Launch site
AFWTR
Launch vehicle
Mass (kg)
RCS (m²)

Purposes: earth_obs

External: N2YO · Heavens-Above · Gunter

§ Orbital elements

Epoch: 2026-09-20T00:37:24.696192Z

Period
96.00 min
Inclination
97.4219°
Eccentricity
0.0013898
Mean motion
15.00038253 rev/d
Perigee alt
557.1 km
Apogee alt
576.4 km
Semi-major
6,944.9 km
B*
1.0702e-4
RAAN
290.6393°
Arg perigee
90.8400°
Mean anomaly
269.4417°
Rev number
42,552

§ Raw data

KAZSTSAT1 43783U 18099AB  26263.02598028  .00001278  00000+0  10702-3 0  99952 43783  97.4219 290.6393 0013898  90.8400 269.4417 15.00038253425529

JSON: /api/v1/satellites/43783 · /tle

For live sub-satellite position, see the globe view (requires WebGL).

§ Visibility from observer

Set your observer location to see the next 7 days of passes ≥ 10°. The values pass through the URL so the page stays shareable.

No JS? Fill the form by hand. The geolocation button needs JavaScript.

§ Radio — SatNOGS DB

ModeDescriptionDownlinkUplink
FM S-band telemetry 2.227 GHz

1 transmitter · refreshed weekly from db.satnogs.org